When you browse on this site, cookies collect data to enhance your experience and personalize the content and advertising you see.
Visit our Privacy Policy to learn more. By continuing to use the site, you agree to this use of cookies and data.
  • In Schweiz
  • Länderverzeichnis
  • Für 7 Tage
  • Wassertemperatur
  • Satellitenkarten
  • Wetterkarte
  • Widgets
  • user-avatar
    Anmelden

    Stündliche Wetter Starye Bagazy

    Heute, 18 Februar, Montag

    Zeit Temperatur Niederschläge Wind Luftdruck Luftfeuchtigkeit
    00:00 -5°C° 0.1 mm 4 m/S 725 mmHg 91%
    01:00 -5°C° 0.1 mm 4 m/S 725 mmHg 90%
    02:00 -5°C° 0.2 mm 4 m/S 724 mmHg 91%
    03:00 -5°C° 0.2 mm 4 m/S 724 mmHg 91%
    04:00 -5°C° 0 mm 4 m/S 723 mmHg 92%
    05:00 -5°C° 0.3 mm 4 m/S 723 mmHg 92%
    06:00 -5°C° 0.3 mm 4 m/S 723 mmHg 92%
    07:00 -5°C° 0.3 mm 4 m/S 723 mmHg 92%
    08:00 -5°C° 0.3 mm 4 m/S 723 mmHg 91%
    09:00 -4°C° 0.3 mm 4 m/S 722 mmHg 90%
    10:00 -4°C° 0.3 mm 4 m/S 722 mmHg 90%
    11:00 -4°C° 0.1 mm 4 m/S 723 mmHg 89%
    12:00 -2°C° 0.1 mm 3 m/S 723 mmHg 87%
    13:00 -2°C° 0.1 mm 3 m/S 723 mmHg 86%
    14:00 -2°C° 0.2 mm 2 m/S 723 mmHg 87%
    15:00 -2°C° 0.2 mm 2 m/S 723 mmHg 88%
    16:00 0°C° 0.2 mm 1 m/S 724 mmHg 90%
    17:00 -1°C° 0.2 mm 1 m/S 724 mmHg 91%
    18:00 -1°C° 0.2 mm 1 m/S 725 mmHg 93%
    19:00 -2°C° 0.2 mm 1 m/S 725 mmHg 95%
    20:00 -2°C° 0.1 mm 1 m/S 725 mmHg 95%
    21:00 -2°C° 0.1 mm 1 m/S 726 mmHg 95%
    22:00 -2°C° 0.1 mm 1 m/S 726 mmHg 96%
    23:00 -5°C° 0.2 mm 2 m/S 727 mmHg 96%

    Morgen, 19 Februar, Dienstag

    Zeit Temperatur Niederschläge Wind Luftdruck Luftfeuchtigkeit
    00:00 -5°C° 0.2 mm 2 m/S 727 mmHg 96%
    01:00 -6°C° 0.2 mm 3 m/S 728 mmHg 96%
    02:00 -8°C° 0.2 mm 4 m/S 728 mmHg 94%
    03:00 -11°C° 0.2 mm 5 m/S 729 mmHg 92%
    04:00 -12°C° 0.2 mm 5 m/S 730 mmHg 90%
    05:00 -13°C° 0.1 mm 5 m/S 731 mmHg 90%
    06:00 -14°C° 0.1 mm 5 m/S 731 mmHg 89%
    07:00 -14°C° 0.1 mm 5 m/S 732 mmHg 89%
    08:00 -15°C° 0 mm 5 m/S 733 mmHg 89%
    09:00 -17°C° 0 mm 5 m/S 734 mmHg 88%
    10:00 -17°C° 0 mm 6 m/S 734 mmHg 88%
    11:00 -17°C° 0 mm 5 m/S 735 mmHg 88%
    12:00 -17°C° 0 mm 5 m/S 735 mmHg 88%
    13:00 -17°C° 0 mm 5 m/S 736 mmHg 88%
    14:00 -16°C° 0 mm 4 m/S 736 mmHg 88%
    15:00 -16°C° 0 mm 4 m/S 737 mmHg 89%
    16:00 -16°C° 0 mm 4 m/S 738 mmHg 89%
    17:00 -17°C° 0 mm 4 m/S 738 mmHg 91%
    18:00 -17°C° 0 mm 3 m/S 739 mmHg 92%
    19:00 -18°C° 0 mm 3 m/S 740 mmHg 94%
    20:00 -18°C° 0 mm 2 m/S 740 mmHg 95%
    21:00 -19°C° 0 mm 2 m/S 741 mmHg 96%
    22:00 -18°C° 0 mm 1 m/S 741 mmHg 97%
    23:00 -18°C° 0 mm 1 m/S 741 mmHg 97%

    übermorgen, 20 Februar, Mittwoch

    Zeit Temperatur Niederschläge Wind Luftdruck Luftfeuchtigkeit
    00:00 -18°C° 0 mm 1 m/S 741 mmHg 98%
    01:00 -19°C° 0 mm 1 m/S 742 mmHg 98%
    02:00 -19°C° 0 mm 1 m/S 742 mmHg 98%
    03:00 -20°C° 0 mm 1 m/S 742 mmHg 99%
    04:00 -20°C° 0 mm 1 m/S 742 mmHg 99%
    05:00 -21°C° 0 mm 1 m/S 743 mmHg 98%
    06:00 -21°C° 0 mm 1 m/S 743 mmHg 98%
    07:00 -21°C° 0 mm 1 m/S 743 mmHg 97%
    08:00 -23°C° 0 mm 2 m/S 743 mmHg 95%
    09:00 -20°C° 0 mm 2 m/S 743 mmHg 93%
    10:00 -18°C° 0 mm 2 m/S 744 mmHg 90%
    11:00 -18°C° 0 mm 3 m/S 743 mmHg 89%
    12:00 -16°C° 0 mm 3 m/S 743 mmHg 88%
    13:00 -15°C° 0 mm 3 m/S 743 mmHg 87%
    14:00 -16°C° 0 mm 4 m/S 743 mmHg 88%
    15:00 -15°C° 0 mm 4 m/S 743 mmHg 88%
    16:00 -15°C° 0 mm 4 m/S 742 mmHg 89%
    17:00 -15°C° 0 mm 4 m/S 742 mmHg 90%
    18:00 -17°C° 0 mm 5 m/S 742 mmHg 91%
    19:00 -17°C° 0 mm 5 m/S 742 mmHg 92%
    20:00 -15°C° 0 mm 5 m/S 741 mmHg 91%
    21:00 -15°C° 0 mm 5 m/S 741 mmHg 91%
    22:00 -15°C° 0 mm 6 m/S 741 mmHg 90%
    23:00 -15°C° 0 mm 6 m/S 740 mmHg 90%

    21 Februar, Donnerstag

    Zeit Temperatur Niederschläge Wind Luftdruck Luftfeuchtigkeit
    00:00 -15°C° 0 mm 6 m/S 740 mmHg 89%
    01:00 -15°C° 0 mm 6 m/S 739 mmHg 89%
    02:00 -14°C° 0.1 mm 6 m/S 739 mmHg 89%
    03:00 -12°C° 0.1 mm 6 m/S 738 mmHg 90%
    04:00 -12°C° 0.1 mm 6 m/S 738 mmHg 90%
    05:00 -11°C° 0.1 mm 6 m/S 738 mmHg 90%
    06:00 -11°C° 0.1 mm 6 m/S 738 mmHg 90%
    07:00 -11°C° 0.1 mm 6 m/S 737 mmHg 91%
    08:00 -10°C° 0.1 mm 6 m/S 738 mmHg 91%
    09:00 -10°C° 0.1 mm 6 m/S 738 mmHg 91%
    10:00 -10°C° 0.1 mm 6 m/S 738 mmHg 91%
    11:00 -9°C° 0.1 mm 6 m/S 738 mmHg 91%
    12:00 -9°C° 0.1 mm 6 m/S 738 mmHg 90%
    13:00 -8°C° 0.1 mm 6 m/S 738 mmHg 90%
    14:00 -9°C° 0.1 mm 6 m/S 738 mmHg 90%
    15:00 -9°C° 0.1 mm 6 m/S 738 mmHg 90%
    16:00 -9°C° 0.1 mm 6 m/S 738 mmHg 90%
    17:00 -9°C° 0.1 mm 6 m/S 738 mmHg 90%
    18:00 -9°C° 0.1 mm 6 m/S 738 mmHg 90%
    19:00 -9°C° 0.1 mm 6 m/S 739 mmHg 90%
    20:00 -9°C° 0.1 mm 6 m/S 738 mmHg 90%
    21:00 -9°C° 0.1 mm 6 m/S 738 mmHg 90%
    22:00 -9°C° 0.1 mm 6 m/S 738 mmHg 90%
    23:00 -8°C° 0.1 mm 6 m/S 738 mmHg 90%

    22 Februar, Freitag

    Zeit Temperatur Niederschläge Wind Luftdruck Luftfeuchtigkeit
    00:00 -8°C° 0.1 mm 6 m/S 738 mmHg 90%
    01:00 -6°C° 0.1 mm 6 m/S 738 mmHg 90%
    02:00 -6°C° 0.1 mm 6 m/S 738 mmHg 89%
    03:00 -6°C° 0.1 mm 6 m/S 737 mmHg 89%
    04:00 -6°C° 0.1 mm 6 m/S 737 mmHg 88%
    05:00 -6°C° 0.1 mm 6 m/S 737 mmHg 89%
    06:00 -6°C° 0.1 mm 6 m/S 737 mmHg 89%
    07:00 -6°C° 0.1 mm 6 m/S 736 mmHg 89%
    08:00 -5°C° 0.1 mm 6 m/S 736 mmHg 88%
    09:00 -5°C° 0.1 mm 6 m/S 736 mmHg 87%
    10:00 -4°C° 0.1 mm 6 m/S 736 mmHg 86%
    11:00 -4°C° 0.2 mm 6 m/S 736 mmHg 87%
    12:00 -4°C° 0.2 mm 5 m/S 736 mmHg 88%
    13:00 -4°C° 0.2 mm 5 m/S 735 mmHg 89%
    14:00 -4°C° 0.4 mm 5 m/S 735 mmHg 89%
    15:00 -4°C° 0.4 mm 5 m/S 735 mmHg 89%
    16:00 -4°C° 0.4 mm 5 m/S 735 mmHg 88%
    17:00 -4°C° 0.1 mm 4 m/S 735 mmHg 89%
    18:00 -4°C° 0.1 mm 4 m/S 735 mmHg 90%
    19:00 -5°C° 0.1 mm 3 m/S 735 mmHg 91%
    20:00 -7°C° 0.1 mm 4 m/S 735 mmHg 90%
    21:00 -7°C° 0.1 mm 5 m/S 735 mmHg 88%
    22:00 -8°C° 0.1 mm 6 m/S 735 mmHg 87%
    23:00 -10°C° 0 mm 5 m/S 736 mmHg 89%

    23 Februar, Samstag

    Zeit Temperatur Niederschläge Wind Luftdruck Luftfeuchtigkeit
    00:00 -10°C° 0 mm 4 m/S 736 mmHg 90%
    01:00 -10°C° 0 mm 3 m/S 736 mmHg 92%
    02:00 -11°C° 0.2 mm 4 m/S 737 mmHg 92%
    03:00 -10°C° 0.2 mm 4 m/S 737 mmHg 92%
    04:00 -11°C° 0.2 mm 5 m/S 738 mmHg 92%
    05:00 -10°C° 0.1 mm 4 m/S 738 mmHg 93%
    06:00 -9°C° 0.1 mm 4 m/S 739 mmHg 94%
    07:00 -9°C° 0.1 mm 4 m/S 740 mmHg 95%
    08:00 -10°C° 0.1 mm 4 m/S 740 mmHg 95%
    09:00 -11°C° 0.1 mm 4 m/S 741 mmHg 95%
    10:00 -13°C° 0.1 mm 5 m/S 742 mmHg 95%
    11:00 -13°C° 0.1 mm 5 m/S 743 mmHg 93%
    12:00 -12°C° 0.1 mm 4 m/S 743 mmHg 92%
    13:00 -12°C° 0.1 mm 4 m/S 744 mmHg 91%
    14:00 -12°C° 0.1 mm 4 m/S 744 mmHg 91%
    15:00 -12°C° 0.1 mm 4 m/S 745 mmHg 91%
    16:00 -14°C° 0.1 mm 4 m/S 745 mmHg 91%
    17:00 -13°C° 0.1 mm 3 m/S 746 mmHg 92%
    18:00 -14°C° 0.1 mm 3 m/S 746 mmHg 93%
    19:00 -15°C° 0.1 mm 3 m/S 747 mmHg 95%
    20:00 -15°C° 0 mm 2 m/S 747 mmHg 96%
    21:00 -16°C° 0 mm 2 m/S 747 mmHg 96%
    22:00 -16°C° 0 mm 2 m/S 748 mmHg 97%
    23:00 -15°C° 0 mm 1 m/S 748 mmHg 97%
    Mehr zeigen